Simultaneous Nadir Overpasses (SNOs) Predictions

Prediction of SNOs between METOP-A and NPP Satellite Orbit:

Table of predicted SNOs for the next 14.0 days since TLE Epoch: 3/31/2012
Index Date (METOP-A) Time (METOP-A) METOP-A Lat,Lon Date (NPP) Time (NPP) NPP Lat,Lon Distance(km) Time Diff (sec)
1 03/31/2012 05:27:49 72.46, 89.40 03/31/2012 05:29:02 72.54, 89.74 14.05 73
2 03/31/2012 06:18:32 -72.40,-103.40 03/31/2012 06:19:44 -72.45,-102.76 22.04 72
3 03/31/2012 07:09:16 72.18, 63.52 03/31/2012 07:10:26 72.24, 64.96 49.47 70
4 03/31/2012 07:59:59 -72.12,-129.28 03/31/2012 08:01:08 -72.15,-127.55 59.03 69
5 03/31/2012 08:50:44 71.85, 37.55 03/31/2012 08:51:50 71.93, 40.17 90.82 66
